NOAA NWS Hourly Roundups by Site

Regional Weather Roundup for Green Bay, WI

To Select Another Site Choose from List

Select Site:  

000
ASUS43 KGRB 232311
RWRGRB

NORTH-CENTRAL AND NORTHEAST WISCONSIN REGIONAL WEATHER ROUNDUP
NATIONAL WEATHER SERVICE GREEN BAY WI
500 PM CST SAT JAN 23 2021

WIZ005-009-010>012-018-019-240000-
NORTH CENTRAL WISCONSIN

CITY           SKY/WX    TMP DP  RH WIND       PRES   REMARKS
IRONWOOD       CLOUDY    17  10  74 VRB5      30.15S WCI  10
MANITOWISH WTR MOCLDY    14   7  74 SE3       30.13F
ARBOR VITAE    PTCLDY    17   8  69 SE5       30.13F WCI  10
EAGLE RIVER    PTCLDY    14   6  72 CALM      30.14F
LAND O LAKES   MOCLDY    14   8  75 CALM      30.16S
RHINELANDER    CLOUDY    17   5  59 S3        30.14F
PHILLIPS       PTCLDY    16   8  72 S5        30.14S WCI   8
ANTIGO         PTCLDY    13   5  70 CALM      30.17F
TOMAHAWK       CLOUDY    16   6  64 CALM      30.16F
MERRILL        PTCLDY    17   8  70 CALM      30.18S
$$

WIZ013-073-240000-
NORTHEAST WISCONSIN

CITY           SKY/WX    TMP DP  RH WIND       PRES   REMARKS
IRON MOUNTAIN  CLEAR     18   7  62 NW5       30.19S
MARINETTE      NOT AVBL
OCONTO         CLEAR     19   6  56 CALM      30.27S
$$

WIZ017-030-035>037-045-240000-
CENTRAL WISCONSIN

CITY           SKY/WX    TMP DP  RH WIND       PRES   REMARKS
MEDFORD        CLOUDY    15   6  68 SE3       30.15F
WAUSAU         CLOUDY    17   5  59 S3        30.19S
MOSINEE        PTCLDY    18   7  62 S5        30.21S
MARSHFIELD     CLOUDY    20   5  52 SE6       30.18F
WISC RAPIDS    CLOUDY    21   4  47 CALM      30.22F
STEVENS POINT  CLOUDY    16   4  58 SE3       30.23S
WAUPACA        MOCLDY    23   2  41 CALM      30.25S
SHAWANO        PTCLDY    22   6  49 CALM      30.24F
CLINTONVILLE   MOCLDY    21   2  45 SW3       30.25S
WAUTOMA        CLOUDY    21   2  43 S5        30.25F
$$

WIZ038-039-048-051-240000-
FOX VALLEY

CITY           SKY/WX    TMP DP  RH WIND       PRES   REMARKS
NWS GREEN BAY  PTCLDY    20   5  52 S6        30.27F
APPLETON       MOCLDY    19  -6  32 S6        30.23F
OSHKOSH        CLOUDY    17   5  59 S5        30.26F WCI  10
FOND DU LAC    PTCLDY    19   5  54 S6        30.26F
$$

WIZ022-050-052-240000-
EAST CENTRAL WISCONSIN

CITY           SKY/WX    TMP DP  RH WIND       PRES   REMARKS
EPHRAIM        FAIR      17   7  63 CALM      30.26S
WASHINGTON ISL FAIR      18  10  69 SW5       30.27S
STURGEON BAY   CLEAR     19   8  62 SW3       30.28S
MANITOWOC      PTCLDY    20   3  48 CALM      30.29F
SHEBOYGAN      CLOUDY    20   5  52 S6        30.28F
$$

LMZ563-521-522-541>543-240000-
LAKESHORE

STATION/POSITION TIME  TEMP    WIND        PRES    VSBY  WAVE
                       AIR SEA DIR/SP/G                  HT/PER
                 (UTC) (F)     (DEG/KT/KT) (MB)    (MI)  (FT/S)
SHEBOYGAN LKSHOR 2300   23     210/  5/  6   N/A
KEWAUNEE LKSHORE 2230   22     250/  6/  9 1025.0F
CHAMBERS ISLAND  2240   20     140/  4/  9   N/A
MENOMINEE LKSHOR 2230   21 35  220/  6/  8 1024.6F
$$


 

View Past Reports for Green Bay, WI.

Products Courtesy of NOAA-NWS
NWS Information Parsing Script by Ken True at Saratoga Weather - Script by SE Lincoln Weather.